User: anonymous   Login
Location: St. Louis
(38.6270°N, 90.1994°W)
Time: 12:55:01
(UTC-06:00)
Language:

YUBILEINY - Orbit

View from above orbital plane
View from above orbital plane
View from above satellite
View from above satellite

Ground track
Ground track

The orbit data is extracted from the following two-line orbital elements,

1 32953U 08025A   22019.08321384  .00000021  00000-0  80971-4 0  9992
2 32953  82.5041 276.8176 0018584 226.1250 133.8301 12.43106747619779
Epoch (UTC): 19 January 2022 01:59:49
Eccentricity: 0.0018584
inclination: 82.5041°
perigee height: 1479 km
apogee height: 1508 km
right ascension of ascending node: 276.8176°
argument of perigee: 226.1250°
revolutions per day: 12.43106747
mean anomaly at epoch: 133.8301°
orbit number at epoch: 61977

The dashed part of the orbit path shows where the satellite is in the earth's shadow,  

DLR